Location: Cabri�res
(43.7840°N, 5.4986°E)
Time: 18:23:06
(UTC+00:00)

Cosmos 2151 - Pass Details

Date: 09 April 2020
Orbit: 582 x 600 km, 82.5° (Epoch: 02 June)

Event Time Altitude Azimuth Distance (km) Brightness Sun altitude
Rises 21:02:31 0° 351° (N) 2,816 7.2 -27.2°
Reaches altitude 10° 21:04:43 10° 351° (N) 1,912 6.2 -27.5°
Enters shadow 21:07:31 41° 350° (N) 854 4.0 -27.9°
